{"data":{"norad_id":49115,"intl_designator":"2021-077A","name":"TJS-7","alt_names":[],"object_type":"PAYLOAD","status":"ACTIVE","operator":null,"country":"PRC","launch_date":"2021-08-24","launch_site_code":"XICLF","launch_vehicle":null,"mission":null,"orbit_class":"UNKNOWN","rcs_meters":null,"size_class":null,"mass_kg":null,"dimensions":null,"purposes":["comms"],"wikipedia_slug":null,"has_3d_model":false,"image_url":null,"decayed_at":null,"tle_current":{"epoch":"2026-09-20T04:28:28.478208Z","epoch_age_seconds":49062,"freshness":"FRESH","line1":"1 49115U 21077A   26263.18644072 -.00000129  00000+0  00000+0 0  9999","line2":"2 49115   0.1179 260.3482 0001730 106.6757 319.7138  1.00273783 10507","mean_motion":1.00273783,"eccentricity":0.000173,"inclination_deg":0.1179,"raan_deg":260.3482,"arg_perigee_deg":106.6757,"mean_anomaly_deg":319.7138,"bstar":0,"rev_number":1050,"period_min":1436.0682891559,"perigee_km":35778.74045683,"apogee_km":35793.329260293,"semimajor_km":42164.171858562,"source":"CELESTRAK","updated_at":"2026-09-20T09:00:35.299341Z"}}}